Weather History for Hobart, OK

Change the Weather History Date:

Friday, October 11, 2013

  Actual Average Record
Temperature  
Mean Temperature 74 °F -  
Max Temperature 88 °F 73 °F 88 °F (2013)
Min Temperature 61 °F 50 °F 45 °F (2006)
Cooling Degree Days 10    
Growing Degree Days 24 (Base 50)    
Moisture  
Dew Point 46 °F    
Average Humidity 47    
Maximum Humidity 90    
Minimum Humidity 11    
Precipitation  
Precipitation 0.00 in - - ()
Sea Level Pressure  
Sea Level Pressure 29.77 in    
Wind  
Wind Speed 18 mph (SSW)    
Max Wind Speed 25 mph    
Max Gust Speed 32 mph    
Visibility 10 miles    
Events      
Averages and records for this station are not official NWS values.
T = Trace of Precipitation, MM = Missing Value Source: NWS Daily Summary

Daily Weather History Graph

Daily Weather History Graph

Search for Another Location

Airport:

Trip Planner

Search our weather history database for the weather conditions in past years. The results will help you decide how hot, cold, wet, or windy it might be!

Date:

Astronomy

Oct. 11, 2013 Rise Set
Actual Time 7:39 AM CDT 7:06 PM CDT
Civil Twilight 7:13 AM CDT 7:31 PM CDT
Nautical Twilight 6:44 AM CDT 8:00 PM CDT
Astronomical Twilight 6:14 AM CDT 8:30 PM CDT
Moon 2:15 PM CDT (10/11) No Moon Set
Length of Visible Light 12h 17m
Length of Day
11h 27m
Waxing Crescent, 47% of the Moon is Illuminated
Oct 11
Waxing Crescent
Oct 11
First Quarter
Oct 18
Full
Oct 26
Last Quarter
Nov 3
New

Hourly Weather History & Observations

Time (CDT) Temp. Dew Point Humidity Pressure Visibility Wind Dir Wind Speed Gust Speed Precip Events Conditions
12:53 AM 69.1 °F 57.9 °F 68% 29.74 in 10.0 mi South 25.3 mph 31.1 mph N/A   Clear
1:53 AM 69.1 °F 59.0 °F 70% 29.73 in 10.0 mi South 24.2 mph 32.2 mph N/A   Partly Cloudy
2:53 AM 66.9 °F 59.0 °F 76% 29.75 in 10.0 mi South 21.9 mph - N/A   Clear
3:53 AM 66.0 °F 59.0 °F 78% 29.75 in 10.0 mi South 18.4 mph - N/A   Clear
4:53 AM 66.0 °F 59.0 °F 78% 29.76 in 10.0 mi South 15.0 mph - N/A   Clear
5:53 AM 64.9 °F 59.0 °F 81% 29.76 in 10.0 mi South 17.3 mph - N/A   Clear
6:53 AM 64.0 °F 59.0 °F 84% 29.77 in 10.0 mi South 17.3 mph - N/A   Clear
7:53 AM 63.0 °F 60.1 °F 90% 29.79 in 10.0 mi South 16.1 mph - N/A   Clear
8:53 AM 64.9 °F 61.0 °F 87% 29.81 in 10.0 mi SSW 16.1 mph - N/A   Clear
9:53 AM 70.0 °F 57.9 °F 65% 29.81 in 10.0 mi SSW 17.3 mph - N/A   Clear
10:53 AM 75.0 °F 39.9 °F 28% 29.81 in 10.0 mi WSW 13.8 mph - N/A   Clear
11:53 AM 79.0 °F 35.1 °F 20% 29.81 in 10.0 mi SW 18.4 mph 25.3 mph N/A   Clear
12:53 PM 82.0 °F 33.1 °F 17% 29.79 in 10.0 mi SW 18.4 mph 25.3 mph N/A   Clear
1:53 PM 84.0 °F 30.9 °F 15% 29.76 in 10.0 mi WSW 16.1 mph 26.5 mph N/A   Clear
2:53 PM 87.1 °F 27.0 °F 11% 29.74 in 10.0 mi WSW 17.3 mph 31.1 mph N/A   Clear
3:53 PM 88.0 °F 28.9 °F 12% 29.72 in 10.0 mi SW 16.1 mph 26.5 mph N/A   Clear
4:53 PM 87.1 °F 30.0 °F 13% 29.72 in 10.0 mi WSW 20.7 mph 31.1 mph N/A   Clear
5:53 PM 86.0 °F 32.0 °F 14% 29.73 in 10.0 mi WSW 20.7 mph 28.8 mph N/A   Clear
6:53 PM 79.0 °F 37.0 °F 22% 29.75 in 10.0 mi SW 9.2 mph - N/A   Clear
7:53 PM 73.0 °F 39.0 °F 29% 29.78 in 10.0 mi SSW 6.9 mph - N/A   Clear
8:53 PM 68.0 °F 41.0 °F 37% 29.81 in 10.0 mi South 8.1 mph - N/A   Clear
9:53 PM 64.9 °F 43.0 °F 45% 29.82 in 10.0 mi South 10.4 mph - N/A   Clear
10:53 PM 61.0 °F 44.1 °F 54% 29.84 in 10.0 mi WNW 5.8 mph - N/A   Clear
11:53 PM 66.0 °F 41.0 °F 40% 29.83 in 10.0 mi SSW 5.8 mph - N/A   Clear